Torna al catalogo

IRIDIUM 33 DEB

AttivoPO
NORAD 36493·DEBRIS·🇺🇸 United States

Lanciato Sep 14, 1997 da Baikonur Cosmodrome

Loading…

Prossimi Passaggi (prossime 24 ore)

TLE

AggiornatoSource: Space-Track

Epoca: Sep 13, 2026, 05:56 UTC

1 36493U 97051WK  26256.24752537  .00003836  00000-0  65789-3 0  9991
2 36493  86.3519 249.3137 0012745 118.9506 241.2988 14.68464619785437

Traccia IRIDIUM 33 DEB in tempo reale con AllMySat

Download on the App Store